Location: Badlands Tank
(34.7185°N, 107.0376°W)
Time: 14:08:35
(UTC+00:00)

USA 267 - Pass Details

Date: 14 August 2025
Orbit: 1101 x 1107 km, 123.0° (Epoch: 10 January)

Event Time Altitude Azimuth Distance (km) Brightness Sun altitude
Exits shadow 04:43:48 31° 60° (ENE) 1,836 4.3 -29.6°
Maximum altitude 04:45:18 34° 34° (NE) 1,727 4.3 -29.8°
Drops below altitude 10° 04:51:04 10° 332° (NNW) 2,971 6.4 -30.6°
Sets 04:53:46 0° 324° (NW) 3,931 7.3 -30.9°
